| time (UTC) | temp F | wind direction | speed knots | gust knots | rain 1hr in | rain 24hr in | rain mn in | humidity % | barometer mb |
| 20260508004504 | 50 | 297 | 1.7 | 4.3 | 0.00 | 0.14 | 0.08 | 54 | 1005.1 |
| 20260508003605 | 50 | 287 | 2.6 | 5.2 | 0.00 | 0.14 | 0.08 | 54 | 1005.1 |
| 20260508002704 | 51 | 278 | 2.6 | 5.2 | 0.00 | 0.14 | 0.08 | 54 | 1005.1 |
| 20260508001804 | 51 | 297 | 2.6 | 6.1 | 0.00 | 0.14 | 0.08 | 52 | 1005.1 |
| 20260508000925 | 52 | 278 | 1.7 | 6.1 | 0.00 | 0.14 | 0.08 | 52 | 1005.1 |
| 20260508000004 | 52 | 285 | 2.6 | 6.1 | 0.00 | 0.14 | 0.08 | 51 | 1005.1 |
| 20260507235404 | 52 | 284 | 2.6 | 6.1 | 0.00 | 0.14 | 0.08 | 51 | 1005.1 |
| 20260507234525 | 53 | 291 | 2.6 | 7.0 | 0.00 | 0.14 | 0.08 | 50 | 1005.1 |
| 20260507233605 | 53 | 291 | 2.6 | 7.0 | 0.00 | 0.14 | 0.08 | 50 | 1005.1 |
| 20260507232704 | 54 | 283 | 2.6 | 8.7 | 0.00 | 0.14 | 0.08 | 50 | 1005.1 |
| 20260507231804 | 54 | 281 | 2.6 | 7.0 | 0.00 | 0.14 | 0.08 | 49 | 1005.1 |
| 20260507230905 | 55 | 282 | 2.6 | 6.1 | 0.00 | 0.14 | 0.08 | 49 | 1005.1 |
| 20260507230005 | 55 | 271 | 2.6 | 8.7 | 0.00 | 0.14 | 0.08 | 49 | 1005.1 |
| 20260507225405 | 56 | 276 | 2.6 | 8.7 | 0.00 | 0.14 | 0.08 | 48 | 1005.1 |
| 20260507224504 | 56 | 290 | 2.6 | 9.6 | 0.00 | 0.14 | 0.08 | 48 | 1005.1 |
| 20260507223604 | 57 | 273 | 2.6 | 9.6 | 0.00 | 0.14 | 0.08 | 48 | 1005.1 |
| 20260507222704 | 57 | 283 | 2.6 | 7.0 | 0.00 | 0.14 | 0.08 | 48 | 1005.1 |
| 20260507221804 | 57 | 269 | 3.5 | 8.7 | 0.00 | 0.14 | 0.08 | 49 | 1005.1 |
| 20260507220904 | 57 | 247 | 2.6 | 7.8 | 0.00 | 0.14 | 0.08 | 47 | 1005.1 |
| 20260507220005 | 57 | 289 | 2.6 | 7.8 | 0.00 | 0.15 | 0.08 | 47 | 1005.1 |
| 20260507215404 | 58 | 271 | 2.6 | 6.1 | 0.00 | 0.15 | 0.08 | 48 | 1005.1 |
| 20260507214505 | 57 | 254 | 2.6 | 5.2 | 0.00 | 0.15 | 0.08 | 48 | 1005.1 |
| 20260507213604 | 57 | 272 | 2.6 | 7.0 | 0.00 | 0.17 | 0.08 | 48 | 1005.1 |
| 20260507212704 | 57 | 256 | 2.6 | 6.1 | 0.00 | 0.18 | 0.08 | 48 | 1005.1 |
| 20260507211804 | 58 | 303 | 2.6 | 7.0 | 0.00 | 0.20 | 0.08 | 47 | 1005.1 |
| 20260507210925 | 58 | 281 | 2.6 | 7.0 | 0.00 | 0.24 | 0.08 | 48 | 1005.1 |
| 20260507210005 | 58 | 241 | 2.6 | 7.0 | 0.00 | 0.24 | 0.08 | 47 | 1005.1 |
| 20260507205405 | 58 | 253 | 2.6 | 6.1 | 0.00 | 0.31 | 0.08 | 48 | 1005.1 |
| 20260507204504 | 59 | 252 | 1.7 | 6.1 | 0.00 | 0.34 | 0.08 | 48 | 1005.1 |
| 20260507203604 | 58 | 254 | 2.6 | 7.0 | 0.00 | 0.36 | 0.08 | 48 | 1005.1 |
| 20260507202704 | 58 | 244 | 2.6 | 6.1 | 0.00 | 0.38 | 0.08 | 49 | 1005.1 |
| 20260507201804 | 59 | 239 | 4.3 | 9.6 | 0.00 | 0.40 | 0.08 | 48 | 1005.1 |
| 20260507200925 | 59 | 241 | 4.3 | 7.8 | 0.00 | 0.40 | 0.08 | 47 | 1005.1 |
| 20260507200004 | 60 | 262 | 4.3 | 9.6 | 0.00 | 0.43 | 0.08 | 47 | 1005.1 |
| 20260507195404 | 60 | 274 | 3.5 | 7.0 | 0.00 | 0.46 | 0.08 | 47 | 1005.1 |
| 20260507194504 | 61 | 248 | 3.5 | 8.7 | 0.00 | 0.46 | 0.08 | 48 | 1005.1 |
| 20260507193604 | 61 | 262 | 3.5 | 7.8 | 0.00 | 0.46 | 0.08 | 47 | 1005.1 |
| 20260507192725 | 60 | 281 | 3.5 | 8.7 | 0.00 | 0.48 | 0.08 | 49 | 1005.1 |
| 20260507191805 | 59 | 298 | 4.3 | 8.7 | 0.00 | 0.50 | 0.08 | 50 | 1005.1 |
| 20260507190905 | 59 | 285 | 4.3 | 7.8 | 0.00 | 0.52 | 0.08 | 50 | 1005.1 |
| 20260507190025 | 60 | 233 | 4.3 | 7.8 | 0.00 | 0.52 | 0.08 | 50 | 1005.1 |
| 20260507185426 | 60 | 248 | 4.3 | 7.8 | 0.00 | 0.54 | 0.08 | 50 | 1005.1 |
| 20260507184526 | 59 | 250 | 4.3 | 7.8 | 0.00 | 0.59 | 0.08 | 53 | 1005.1 |
| 20260507183625 | 58 | 247 | 2.6 | 6.1 | 0.00 | 0.65 | 0.08 | 56 | 1005.1 |
| 20260507182704 | 58 | 252 | 3.5 | 7.8 | 0.00 | 0.66 | 0.08 | 58 | 1005.1 |
| 20260507181805 | 57 | 253 | 2.6 | 7.0 | 0.00 | 0.68 | 0.08 | 62 | 1005.1 |
| 20260507180904 | 57 | 249 | 3.5 | 8.7 | 0.00 | 0.68 | 0.08 | 62 | 1005.1 |
| 20260507180004 | 59 | 264 | 2.6 | 7.0 | 0.00 | 0.70 | 0.08 | 61 | 1005.1 |
| 20260507175404 | 58 | 287 | 2.6 | 6.1 | 0.00 | 0.70 | 0.08 | 63 | 1005.1 |
| 20260507174505 | 57 | 268 | 1.7 | 5.2 | 0.00 | 0.70 | 0.08 | 64 | 1005.1 |
| 20260507173604 | 58 | 225 | 3.5 | 7.0 | 0.00 | 0.70 | 0.08 | 63 | 1005.1 |
| 20260507172704 | 58 | 229 | 2.6 | 7.0 | 0.00 | 0.70 | 0.08 | 61 | 1005.1 |
| 20260507171804 | 57 | 248 | 1.7 | 7.0 | 0.00 | 0.70 | 0.08 | 63 | 1005.1 |
| 20260507170904 | 58 | 225 | 1.7 | 5.2 | 0.00 | 0.70 | 0.08 | 61 | 1005.1 |
| 20260507170025 | 58 | 233 | 2.6 | 7.8 | 0.00 | 0.70 | 0.08 | 62 | 1005.1 |
| 20260507165404 | 58 | 247 | 2.6 | 6.1 | 0.00 | 0.70 | 0.08 | 60 | 1005.1 |
| 20260507164505 | 59 | 267 | 2.6 | 7.0 | 0.00 | 0.70 | 0.08 | 62 | 1005.1 |
| 20260507163604 | 59 | 223 | 3.5 | 9.6 | 0.00 | 0.70 | 0.08 | 60 | 1005.1 |
| 20260507162704 | 58 | 228 | 2.6 | 8.7 | 0.00 | 0.70 | 0.08 | 60 | 1005.1 |
| 20260507161804 | 58 | 228 | 2.6 | 7.0 | 0.00 | 0.70 | 0.08 | 62 | 1005.1 |
| 20260507160925 | 59 | 240 | 2.6 | 6.1 | 0.00 | 0.70 | 0.08 | 60 | 1005.1 |
| 20260507160004 | 60 | 238 | 2.6 | 6.1 | 0.00 | 0.70 | 0.08 | 58 | 1005.1 |
| 20260507155404 | 59 | 247 | 2.6 | 6.1 | 0.00 | 0.70 | 0.08 | 58 | 1005.1 |
| 20260507154525 | 58 | 229 | 3.5 | 7.8 | 0.00 | 0.70 | 0.08 | 59 | 1005.1 |
| 20260507153604 | 59 | 213 | 3.5 | 6.1 | 0.00 | 0.70 | 0.08 | 59 | 1005.1 |
| 20260507152704 | 59 | 223 | 3.5 | 7.0 | 0.00 | 0.70 | 0.08 | 60 | 1005.1 |
| 20260507151826 | 59 | 246 | 3.5 | 7.0 | 0.00 | 0.70 | 0.08 | 59 | 1005.1 |
| 20260507150904 | 58 | 219 | 3.5 | 7.8 | 0.00 | 0.70 | 0.08 | 61 | 1005.1 |
| 20260507150004 | 57 | 231 | 1.7 | 7.0 | 0.00 | 0.70 | 0.08 | 66 | 1005.1 |
| 20260507145405 | 57 | 282 | 1.7 | 6.1 | 0.00 | 0.70 | 0.08 | 66 | 1005.1 |
| 20260507144504 | 57 | 316 | 2.6 | 6.1 | 0.00 | 0.70 | 0.08 | 66 | 1005.1 |
| 20260507143604 | 57 | 314 | 2.6 | 10.4 | 0.00 | 0.70 | 0.08 | 68 | 1005.1 |
| 20260507142704 | 56 | 293 | 2.6 | 6.1 | 0.00 | 0.70 | 0.08 | 69 | 1005.1 |
| 20260507141804 | 56 | 258 | 2.6 | 6.1 | 0.00 | 0.70 | 0.08 | 68 | 1005.1 |
| 20260507140904 | 55 | 312 | 2.6 | 6.1 | 0.00 | 0.70 | 0.08 | 69 | 1005.1 |
| 20260507140004 | 55 | 248 | 2.6 | 5.2 | 0.00 | 0.70 | 0.08 | 71 | 1005.1 |
| 20260507135404 | 54 | 236 | 3.5 | 6.1 | 0.00 | 0.70 | 0.08 | 71 | 1005.1 |
| 20260507134504 | 54 | 272 | 2.6 | 5.2 | 0.00 | 0.70 | 0.08 | 72 | 1005.1 |
| 20260507133604 | 54 | 292 | 2.6 | 6.1 | 0.00 | 0.70 | 0.08 | 72 | 1005.1 |
| 20260507132704 | 53 | 294 | 2.6 | 5.2 | 0.00 | 0.70 | 0.08 | 73 | 1005.1 |
| 20260507131826 | 53 | 277 | 2.6 | 7.0 | 0.00 | 0.70 | 0.08 | 72 | 1005.1 |
| 20260507130903 | 52 | 292 | 2.6 | 7.0 | 0.00 | 0.70 | 0.08 | 74 | 1005.1 |
| 20260507130025 | 52 | 302 | 2.6 | 6.1 | 0.00 | 0.70 | 0.08 | 75 | 1005.1 |
| 20260507125404 | 52 | 299 | 2.6 | 6.1 | 0.00 | 0.70 | 0.08 | 76 | 1005.1 |
| 20260507124504 | 52 | 267 | 1.7 | 4.3 | 0.00 | 0.70 | 0.08 | 77 | 1005.1 |
| 20260507123626 | 51 | 269 | 2.6 | 7.0 | 0.00 | 0.70 | 0.08 | 79 | 1005.1 |
| 20260507122705 | 51 | 279 | 2.6 | 4.3 | 0.00 | 0.70 | 0.08 | 80 | 1005.1 |
| 20260507121804 | 51 | 285 | 1.7 | 3.5 | 0.00 | 0.70 | 0.08 | 78 | 1005.1 |
| 20260507120904 | 50 | 281 | 2.6 | 4.3 | 0.00 | 0.70 | 0.08 | 80 | 1005.1 |
| 20260507120005 | 50 | 251 | 1.7 | 4.3 | 0.00 | 0.70 | 0.08 | 81 | 1005.1 |
| 20260507115404 | 50 | 264 | 1.7 | 3.5 | 0.00 | 0.70 | 0.08 | 82 | 1005.1 |
| 20260507114525 | 49 | 287 | 1.7 | 4.3 | 0.00 | 0.70 | 0.08 | 82 | 1005.1 |
| 20260507113625 | 49 | 285 | 1.7 | 4.3 | 0.00 | 0.70 | 0.08 | 84 | 1005.1 |
| 20260507112703 | 48 | 284 | 1.7 | 3.5 | 0.00 | 0.70 | 0.08 | 86 | 1005.1 |
| 20260507111804 | 48 | 243 | 0.9 | 3.5 | 0.00 | 0.70 | 0.08 | 86 | 1005.1 |
| 20260507110905 | 47 | 277 | 0.9 | 2.6 | 0.00 | 0.70 | 0.08 | 90 | 1005.1 |
| 20260507110004 | 46 | 251 | 0.0 | 2.6 | 0.00 | 0.70 | 0.08 | 93 | 1005.1 |
| 20260507105403 | 45 | 243 | 0.9 | 2.6 | 0.00 | 0.70 | 0.08 | 94 | 1005.1 |
| 20260507104525 | 46 | 229 | 0.9 | 1.7 | 0.00 | 0.70 | 0.08 | 93 | 1005.1 |
| 20260507103604 | 45 | 262 | 0.0 | 1.7 | 0.00 | 0.70 | 0.08 | 95 | 1005.1 |
| 20260507102704 | 44 | 200 | 0.0 | 1.7 | 0.00 | 0.70 | 0.08 | 96 | 1005.1 |
| 20260507101804 | 43 | 195 | 0.9 | 1.7 | 0.00 | 0.70 | 0.08 | 96 | 1005.1 |
| 20260507100903 | 43 | 199 | 0.9 | 2.6 | 0.00 | 0.70 | 0.08 | 98 | 1005.1 |
| 20260507100025 | 43 | 233 | 0.9 | 2.6 | 0.00 | 0.70 | 0.08 | 98 | 1005.1 |
| 20260507095404 | 43 | 229 | 0.9 | 1.7 | 0.00 | 0.70 | 0.08 | 97 | 1005.1 |
| 20260507094504 | 44 | 236 | 0.9 | 2.6 | 0.00 | 0.70 | 0.08 | 96 | 1005.1 |
| 20260507093604 | 44 | 284 | 0.9 | 2.6 | 0.00 | 0.70 | 0.08 | 94 | 1005.1 |
| 20260507092725 | 44 | 270 | 1.7 | 3.5 | 0.00 | 0.70 | 0.08 | 94 | 1005.1 |
| 20260507091804 | 44 | 259 | 1.7 | 4.3 | 0.00 | 0.70 | 0.08 | 97 | 1005.1 |
| 20260507090904 | 43 | 216 | 0.9 | 3.5 | 0.00 | 0.70 | 0.08 | 99 | 1005.1 |
| 20260507090006 | 44 | 228 | 0.9 | 2.6 | 0.00 | 0.70 | 0.08 | 99 | 1005.1 |
| 20260507085404 | 44 | 238 | 1.7 | 3.5 | 0.00 | 0.70 | 0.08 | 99 | 1005.1 |
| 20260507084525 | 44 | 245 | 0.9 | 3.5 | 0.00 | 0.70 | 0.08 | 98 | 1005.1 |
| 20260507083605 | 44 | 267 | 0.9 | 3.5 | 0.00 | 0.70 | 0.08 | 97 | 1005.1 |
| 20260507082704 | 44 | 285 | 1.7 | 4.3 | 0.00 | 0.70 | 0.08 | 96 | 1005.1 |
| 20260507081804 | 45 | 304 | 1.7 | 5.2 | 0.00 | 0.70 | 0.08 | 96 | 1005.1 |
| 20260507080904 | 45 | 288 | 1.7 | 5.2 | 0.00 | 0.70 | 0.08 | 96 | 1005.1 |
| 20260507080004 | 45 | 300 | 1.7 | 5.2 | 0.00 | 0.70 | 0.08 | 96 | 1005.1 |
| 20260507075404 | 45 | 299 | 1.7 | 4.3 | 0.00 | 0.70 | 0.08 | 96 | 1005.1 |
| 20260507074504 | 45 | 279 | 2.6 | 6.1 | 0.00 | 0.70 | 0.08 | 96 | 1005.1 |
| 20260507073625 | 45 | 279 | 2.6 | 5.2 | 0.00 | 0.70 | 0.08 | 96 | 1005.1 |
| 20260507072703 | 45 | 295 | 2.6 | 9.6 | 0.00 | 0.70 | 0.08 | 96 | 1005.1 |
| 20260507071804 | 46 | 287 | 2.6 | 6.1 | 0.00 | 0.70 | 0.08 | 96 | 1005.1 |
| 20260507070904 | 46 | 293 | 3.5 | 7.8 | 0.00 | 0.70 | 0.08 | 96 | 1005.1 |
| 20260507070008 | 46 | 290 | 2.6 | 7.0 | 0.00 | 0.70 | 0.08 | 97 | 1005.1 |
| 20260507065404 | 46 | 289 | 2.6 | 5.2 | 0.00 | 0.70 | 0.08 | 98 | 1005.1 |
| 20260507064505 | 46 | 284 | 2.6 | 4.3 | 0.00 | 0.70 | 0.08 | 99 | 1005.1 |
| 20260507063604 | 46 | 305 | 2.6 | 5.2 | 0.00 | 0.70 | 0.08 | 99 | 1005.1 |
| 20260507062704 | 47 | 307 | 1.7 | 5.2 | 0.00 | 0.70 | 0.08 | 99 | 1005.1 |
| 20260507061804 | 47 | 315 | 1.7 | 5.2 | 0.00 | 0.70 | 0.08 | 99 | 1005.1 |
| 20260507060904 | 47 | 305 | 1.7 | 4.3 | 0.00 | 0.70 | 0.08 | 99 | 1005.1 |
| 20260507060004 | 47 | 311 | 1.7 | 3.5 | 0.00 | 0.70 | 0.08 | 99 | 1005.1 |
| 20260507055404 | 47 | 286 | 1.7 | 4.3 | 0.00 | 0.70 | 0.08 | 99 | 1005.1 |
| 20260507054505 | 47 | 288 | 1.7 | 4.3 | 0.02 | 0.70 | 0.08 | 99 | 1005.1 |
| 20260507053603 | 47 | 311 | 1.7 | 4.3 | 0.02 | 0.70 | 0.08 | 99 | 1005.1 |
| 20260507052705 | 47 | 326 | 2.6 | 5.2 | 0.02 | 0.70 | 0.08 | 99 | 1005.1 |
| 20260507051804 | 47 | 319 | 1.7 | 5.2 | 0.02 | 0.70 | 0.08 | 99 | 1005.1 |
| 20260507050903 | 48 | 319 | 1.7 | 6.1 | 0.08 | 0.70 | 0.08 | 99 | 1005.1 |
| 20260507050004 | 48 | 312 | 2.6 | 7.8 | 0.08 | 0.70 | 0.08 | 99 | 1005.1 |
| 20260507045404 | 48 | 311 | 1.7 | 7.8 | 0.08 | 0.70 | 0.08 | 99 | 1005.1 |
| 20260507044525 | 48 | 307 | 2.6 | 5.2 | 0.07 | 0.68 | 0.07 | 99 | 1005.1 |
| 20260507043605 | 49 | 311 | 2.6 | 7.8 | 0.06 | 0.68 | 0.06 | 99 | 1005.1 |
| 20260507042704 | 49 | 307 | 2.6 | 6.1 | 0.06 | 0.68 | 0.06 | 99 | 1005.1 |
| 20260507041825 | 50 | 312 | 2.6 | 7.0 | 0.07 | 0.68 | 0.06 | 99 | 1005.1 |
| 20260507040904 | 51 | 295 | 2.6 | 5.2 | 0.04 | 0.62 | 0.00 | 99 | 1005.1 |
| 20260507040004 | 51 | 302 | 2.6 | 5.2 | 0.04 | 0.62 | 0.00 | 99 | 1005.1 |
| 20260507035403 | 51 | 316 | 2.6 | 7.0 | 0.04 | 0.62 | 0.62 | 99 | 1005.1 |
| 20260507034504 | 52 | 327 | 2.6 | 7.0 | 0.04 | 0.62 | 0.62 | 99 | 1005.1 |
| 20260507033626 | 52 | 312 | 1.7 | 4.3 | 0.04 | 0.62 | 0.62 | 99 | 1005.1 |
| 20260507032705 | 52 | 308 | 2.6 | 7.0 | 0.04 | 0.62 | 0.61 | 99 | 1005.1 |
| 20260507031803 | 53 | 293 | 2.6 | 5.2 | 0.04 | 0.61 | 0.61 | 99 | 1005.1 |
| 20260507030903 | 54 | 312 | 2.6 | 5.2 | 0.02 | 0.58 | 0.59 | 99 | 1005.1 |
| 20260507030004 | 54 | 280 | 0.9 | 6.1 | 0.02 | 0.58 | 0.58 | 99 | 1005.1 |
| 20260507025425 | 54 | 265 | 0.9 | 3.5 | 0.01 | 0.58 | 0.58 | 99 | 1005.1 |
| 20260507024525 | 54 | 201 | 0.9 | 1.7 | 0.00 | 0.57 | 0.57 | 99 | 1005.1 |
| 20260507023625 | 55 | 273 | 0.9 | 2.6 | 0.00 | 0.57 | 0.57 | 99 | 1005.1 |
| 20260507022705 | 54 | 203 | 1.7 | 4.3 | 0.00 | 0.57 | 0.57 | 99 | 1005.1 |
| 20260507021805 | 54 | 165 | 2.6 | 5.2 | 0.00 | 0.57 | 0.57 | 99 | 1005.1 |
| 20260507020925 | 54 | 154 | 1.7 | 5.2 | 0.00 | 0.57 | 0.57 | 99 | 1005.1 |
| 20260507020004 | 54 | 307 | 0.9 | 2.6 | 0.00 | 0.57 | 0.57 | 99 | 1005.1 |
| 20260507015403 | 54 | 203 | 2.6 | 7.8 | 0.00 | 0.57 | 0.57 | 99 | 1005.1 |
| 20260507014504 | 54 | 169 | 6.1 | 10.4 | 0.00 | 0.57 | 0.57 | 99 | 1005.1 |
| 20260507013624 | 54 | 177 | 4.3 | 10.4 | 0.00 | 0.57 | 0.57 | 99 | 1005.1 |
| 20260507012704 | 54 | 166 | 5.2 | 10.4 | 0.00 | 0.57 | 0.57 | 99 | 1005.1 |
| 20260507011804 | 54 | 168 | 7.8 | 11.3 | 0.00 | 0.57 | 0.57 | 99 | 1005.1 |
| 20260507010903 | 54 | 164 | 7.0 | 13.9 | 0.00 | 0.57 | 0.57 | 99 | 1005.1 |
| 20260507010005 | 54 | 170 | 5.2 | 13.9 | 0.00 | 0.62 | 0.57 | 99 | 1005.1 |
| 20260507005404 | 54 | 167 | 6.1 | 12.2 | 0.00 | 0.62 | 0.57 | 99 | 1005.1 |